DW8313 Weather Reports


Display with metric or nautical units.
time (UTC)temp
F
wind
direction
speed
MPH
gust
MPH
rain 1hr
in
rain 24hr
in
rain mn
in
humidity
%
barometer
mb
20260903200624 77 280 2.0 7.0 0.00 0.00 0.00 30 1011.1
20260903200403 77 267 2.0 6.0 0.00 0.00 0.00 30 1011.2
20260903200204 76 247 2.0 6.0 0.00 0.00 0.00 31 1011.1
20260903200003 76 233 2.0 7.0 0.00 0.00 0.00 29 1011.1
20260903195803 76 243 2.0 7.0 0.00 0.00 0.00 28 1011.2
20260903195603 76 247 2.0 7.0 0.00 0.00 0.00 29 1011.2
20260903195424 76 244 2.0 7.0 0.00 0.00 0.00 29 1011.3
20260903195203 76 257 2.0 7.0 0.00 0.00 0.00 29 1011.2
20260903195003 76 267 2.0 8.0 0.00 0.00 0.00 30 1011.3
20260903194824 76 273 3.0 8.0 0.00 0.00 0.00 30 1011.3
20260903194603 75 283 3.0 9.0 0.00 0.00 0.00 31 1011.4
20260903194403 75 285 3.0 9.0 0.00 0.00 0.00 32 1011.4
20260903194204 75 290 3.0 9.0 0.00 0.00 0.00 30 1011.3
20260903194003 75 292 3.0 9.0 0.00 0.00 0.00 31 1011.5
20260903193803 75 293 2.0 7.0 0.00 0.00 0.00 30 1011.5
20260903193603 75 294 2.0 7.0 0.00 0.00 0.00 30 1011.5
20260903193424 75 298 3.0 9.0 0.00 0.00 0.00 30 1011.5
20260903193203 75 297 3.0 9.0 0.00 0.00 0.00 30 1011.6
20260903193003 75 299 4.0 9.0 0.00 0.00 0.00 28 1011.6
20260903192803 74 300 4.0 9.0 0.00 0.00 0.00 31 1011.7
20260903192603 75 301 3.0 9.0 0.00 0.00 0.00 29 1011.7
20260903192403 75 288 2.0 7.0 0.00 0.00 0.00 29 1011.7
20260903192203 75 255 2.0 7.0 0.00 0.00 0.00 30 1011.8
20260903192003 74 168 1.0 7.0 0.00 0.00 0.00 29 1011.8
20260903191804 74 169 2.0 7.0 0.00 0.00 0.00 30 1011.8
20260903191603 74 194 2.0 7.0 0.00 0.00 0.00 29 1011.9
20260903191403 74 253 2.0 6.0 0.00 0.00 0.00 28 1011.9
20260903191204 74 288 2.0 6.0 0.00 0.00 0.00 30 1011.9
20260903191003 73 293 2.0 6.0 0.00 0.00 0.00 30 1011.9
20260903190803 73 291 3.0 6.0 0.00 0.00 0.00 30 1012.0
20260903190604 73 294 3.0 6.0 0.00 0.00 0.00 30 1012.0
20260903190403 73 292 3.0 7.0 0.00 0.00 0.00 30 1012.0
20260903190204 73 293 3.0 7.0 0.00 0.00 0.00 30 1012.0
20260903190003 73 294 3.0 7.0 0.00 0.00 0.00 31 1012.0
20260903185803 73 289 3.0 7.0 0.00 0.00 0.00 33 1012.1
20260903185603 73 279 3.0 7.0 0.00 0.00 0.00 31 1012.1
20260903185403 73 280 3.0 8.0 0.00 0.00 0.00 31 1012.2
20260903185203 73 280 3.0 8.0 0.00 0.00 0.00 31 1012.1
20260903185003 73 276 3.0 8.0 0.00 0.00 0.00 32 1012.2
20260903184803 72 278 3.0 8.0 0.00 0.00 0.00 31 1012.2
20260903184603 73 286 3.0 8.0 0.00 0.00 0.00 32 1012.3
20260903184403 73 285 2.0 8.0 0.00 0.00 0.00 32 1012.2
20260903184203 72 276 2.0 8.0 0.00 0.00 0.00 32 1012.3
20260903184003 72 281 2.0 8.0 0.00 0.00 0.00 31 1012.3
20260903183803 72 289 2.0 8.0 0.00 0.00 0.00 33 1012.3
20260903183624 72 290 2.0 7.0 0.00 0.00 0.00 33 1012.3
20260903183425 72 292 3.0 8.0 0.00 0.00 0.00 34 1012.3
20260903183224 72 298 3.0 8.0 0.00 0.00 0.00 33 1012.3
20260903183003 72 298 3.0 8.0 0.00 0.00 0.00 34 1012.4
20260903182803 72 296 3.0 8.0 0.00 0.00 0.00 35 1012.4
20260903182603 72 291 2.0 8.0 0.00 0.00 0.00 35 1012.4
20260903182403 71 290 1.0 7.0 0.00 0.00 0.00 36 1012.3
20260903182203 71 284 1.0 7.0 0.00 0.00 0.00 35 1012.4
20260903182003 71 287 2.0 7.0 0.00 0.00 0.00 36 1012.4
20260903181804 71 290 1.0 5.0 0.00 0.00 0.00 36 1012.4
20260903181603 71 299 1.0 6.0 0.00 0.00 0.00 37 1012.4
20260903181403 71 295 2.0 8.0 0.00 0.00 0.00 38 1012.4
20260903181203 70 296 2.0 8.0 0.00 0.00 0.00 39 1012.4
20260903181003 70 294 2.0 8.0 0.00 0.00 0.00 38 1012.4
20260903180803 70 290 2.0 8.0 0.00 0.00 0.00 37 1012.4
20260903180603 71 287 3.0 8.0 0.00 0.00 0.00 37 1012.4
20260903180403 71 291 2.0 6.0 0.00 0.00 0.00 38 1012.4
20260903180225 70 290 2.0 5.0 0.00 0.00 0.00 39 1012.3
20260903180024 70 292 3.0 5.0 0.00 0.00 0.00 39 1012.4
20260903175803 70 292 2.0 5.0 0.00 0.00 0.00 38 1012.4
20260903175603 71 295 2.0 5.0 0.00 0.00 0.00 38 1012.4
20260903175403 71 286 2.0 5.0 0.00 0.00 0.00 38 1012.4
20260903175203 71 274 2.0 5.0 0.00 0.00 0.00 39 1012.4
20260903175024 71 277 2.0 5.0 0.00 0.00 0.00 39 1012.4
20260903174825 70 280 2.0 5.0 0.00 0.00 0.00 38 1012.4
20260903174603 70 282 3.0 8.0 0.00 0.00 0.00 37 1012.4
20260903174403 70 283 2.0 8.0 0.00 0.00 0.00 37 1012.4
20260903174203 70 296 2.0 8.0 0.00 0.00 0.00 38 1012.5
20260903174003 70 292 2.0 8.0 0.00 0.00 0.00 36 1012.4
20260903173824 70 293 1.0 8.0 0.00 0.00 0.00 36 1012.4
20260903173603 70 262 1.0 6.0 0.00 0.00 0.00 37 1012.3
20260903173424 70 280 1.0 6.0 0.00 0.00 0.00 37 1012.4
20260903173203 70 275 1.0 7.0 0.00 0.00 0.00 38 1012.3
20260903173024 70 278 1.0 7.0 0.00 0.00 0.00 38 1012.4
20260903172803 70 282 1.0 7.0 0.00 0.00 0.00 38 1012.3
20260903172603 69 289 2.0 7.0 0.00 0.00 0.00 39 1012.3
20260903172403 69 286 2.0 7.0 0.00 0.00 0.00 39 1012.3
20260903172203 69 290 2.0 7.0 0.00 0.00 0.00 41 1012.3
20260903172024 69 292 2.0 7.0 0.00 0.00 0.00 40 1012.3
20260903171804 69 295 2.0 7.0 0.00 0.00 0.00 39 1012.3
20260903171603 68 295 2.0 7.0 0.00 0.00 0.00 39 1012.3
20260903171403 68 296 2.0 6.0 0.00 0.00 0.00 41 1012.3
20260903171203 69 292 2.0 6.0 0.00 0.00 0.00 41 1012.3
20260903171025 68 291 2.0 6.0 0.00 0.00 0.00 40 1012.2
20260903170803 68 291 2.0 6.0 0.00 0.00 0.00 42 1012.3
20260903170603 68 292 2.0 6.0 0.00 0.00 0.00 41 1012.3
20260903170403 68 292 1.0 6.0 0.00 0.00 0.00 40 1012.2
20260903170203 68 294 1.0 6.0 0.00 0.00 0.00 40 1012.3
20260903170003 68 297 1.0 6.0 0.00 0.00 0.00 39 1012.2
20260903165803 68 297 2.0 6.0 0.00 0.00 0.00 39 1012.2
20260903165624 68 292 2.0 6.0 0.00 0.00 0.00 38 1012.3
20260903165403 67 292 2.0 6.0 0.00 0.00 0.00 39 1012.2
20260903165204 67 292 2.0 5.0 0.00 0.00 0.00 40 1012.2
20260903165003 68 292 3.0 7.0 0.00 0.00 0.00 40 1012.1
20260903164824 67 290 2.0 7.0 0.00 0.00 0.00 41 1012.2
20260903164603 67 295 2.0 7.0 0.00 0.00 0.00 41 1012.1
20260903164403 67 293 2.0 7.0 0.00 0.00 0.00 42 1012.1
20260903164203 67 294 2.0 7.0 0.00 0.00 0.00 43 1012.1
20260903164003 68 292 1.0 5.0 0.00 0.00 0.00 44 1012.1
20260903163803 67 295 1.0 5.0 0.00 0.00 0.00 46 1012.1
20260903163603 67 286 1.0 5.0 0.00 0.00 0.00 45 1012.1
20260903163403 67 287 1.0 5.0 0.00 0.00 0.00 45 1012.1
20260903163204 67 293 1.0 5.0 0.00 0.00 0.00 45 1012.1
20260903163003 67 296 1.0 5.0 0.00 0.00 0.00 46 1012.1
20260903162804 67 295 1.0 5.0 0.00 0.00 0.00 45 1012.1
20260903162603 67 302 2.0 4.0 0.00 0.00 0.00 44 1012.1
20260903162403 66 301 2.0 4.0 0.00 0.00 0.00 45 1012.1
20260903162203 66 299 2.0 4.0 0.00 0.00 0.00 45 1012.1
20260903162003 66 297 2.0 4.0 0.00 0.00 0.00 45 1012.1
20260903161824 66 297 2.0 4.0 0.00 0.00 0.00 45 1012.1
20260903161604 66 295 2.0 4.0 0.00 0.00 0.00 45 1012.0
20260903161403 66 296 1.0 4.0 0.00 0.00 0.00 45 1012.1
20260903161204 66 296 1.0 4.0 0.00 0.00 0.00 45 1012.1
20260903161004 66 302 1.0 5.0 0.00 0.00 0.00 47 1012.0
20260903160804 66 304 1.0 5.0 0.00 0.00 0.00 47 1012.0
20260903160603 66 306 1.0 5.0 0.00 0.00 0.00 48 1012.0
20260903160403 66 297 1.0 5.0 0.00 0.00 0.00 49 1012.0
20260903160203 66 296 1.0 5.0 0.00 0.00 0.00 48 1012.0
20260903160004 66 236 0.0 2.0 0.00 0.00 0.00 49 1012.0
20260903155803 66 236 0.0 2.0 0.00 0.00 0.00 49 1012.1
20260903155603 66 235 0.0 2.0 0.00 0.00 0.00 50 1012.1
20260903155403 65 249 0.0 1.0 0.00 0.00 0.00 51 1012.1
20260903155203 65 249 0.0 1.0 0.00 0.00 0.00 51 1012.1
20260903155003 65 314 0.0 1.0 0.00 0.00 0.00 53 1012.1
20260903154824 65 321 0.0 1.0 0.00 0.00 0.00 52 1012.1
20260903154603 65 321 0.0 1.0 0.00 0.00 0.00 51 1012.1
20260903154403 65 321 0.0 1.0 0.00 0.00 0.00 51 1012.1
20260903154224 65 321 0.0 1.0 0.00 0.00 0.00 52 1012.0
20260903154003 65 0 0.0 0.0 0.00 0.00 0.00 53 1012.0
20260903153803 64 0 0.0 0.0 0.00 0.00 0.00 56 1012.1
20260903153603 64 297 0.0 1.0 0.00 0.00 0.00 56 1012.1
20260903153403 64 297 0.0 1.0 0.00 0.00 0.00 57 1012.1
20260903153203 64 297 0.0 1.0 0.00 0.00 0.00 58 1012.1
20260903153003 63 297 0.0 1.0 0.00 0.00 0.00 59 1012.1
20260903152803 63 297 0.0 1.0 0.00 0.00 0.00 60 1012.1
20260903152624 63 0 0.0 0.0 0.00 0.00 0.00 60 1012.1
20260903152403 63 0 0.0 0.0 0.00 0.00 0.00 61 1012.1
20260903152203 63 246 0.0 1.0 0.00 0.00 0.00 62 1012.1
20260903152003 63 246 0.0 1.0 0.00 0.00 0.00 62 1012.1
20260903151803 63 246 0.0 1.0 0.00 0.00 0.00 62 1012.1
20260903151603 63 246 0.0 1.0 0.00 0.00 0.00 62 1012.1
20260903151403 62 246 0.0 1.0 0.00 0.00 0.00 63 1012.1
20260903151203 62 246 0.0 1.0 0.00 0.00 0.00 65 1012.0
20260903151004 62 0 0.0 0.0 0.00 0.00 0.00 66 1012.1
20260903150824 62 0 0.0 0.0 0.00 0.00 0.00 65 1012.0
20260903150624 63 0 0.0 0.0 0.00 0.00 0.00 65 1012.0
20260903150404 63 0 0.0 0.0 0.00 0.00 0.00 66 1012.0
20260903150225 63 0 0.0 0.0 0.00 0.00 0.00 65 1012.0
20260903150003 63 0 0.0 0.0 0.00 0.00 0.00 66 1012.0
20260903145803 63 0 0.0 0.0 0.00 0.00 0.00 65 1012.0
20260903145603 63 0 0.0 0.0 0.00 0.00 0.00 65 1012.0
20260903145403 63 0 0.0 0.0 0.00 0.00 0.00 65 1012.0
20260903145203 63 0 0.0 0.0 0.00 0.00 0.00 66 1012.0
20260903145003 63 0 0.0 0.0 0.00 0.00 0.00 66 1012.0
20260903144803 63 0 0.0 0.0 0.00 0.00 0.00 68 1012.0
20260903144603 62 0 0.0 0.0 0.00 0.00 0.00 67 1012.0
20260903144403 62 0 0.0 0.0 0.00 0.00 0.00 68 1012.0
20260903144203 61 0 0.0 0.0 0.00 0.00 0.00 66 1012.0
20260903144004 61 0 0.0 0.0 0.00 0.00 0.00 67 1011.9
20260903143803 61 0 0.0 0.0 0.00 0.00 0.00 67 1011.8
20260903143603 61 0 0.0 0.0 0.00 0.00 0.00 67 1011.8
20260903143403 60 0 0.0 0.0 0.00 0.00 0.00 67 1011.7
20260903143203 60 0 0.0 0.0 0.00 0.00 0.00 67 1011.7
20260903143024 60 130 0.0 1.0 0.00 0.00 0.00 66 1011.6
20260903142803 60 130 0.0 1.0 0.00 0.00 0.00 66 1011.6
20260903142603 60 130 0.0 1.0 0.00 0.00 0.00 67 1011.6
20260903142403 59 127 0.0 1.0 0.00 0.00 0.00 67 1011.6
20260903142203 59 128 0.0 1.0 0.00 0.00 0.00 67 1011.6
20260903142003 59 130 0.0 1.0 0.00 0.00 0.00 67 1011.6
20260903141803 59 128 1.0 2.0 0.00 0.00 0.00 67 1011.6
20260903141603 58 129 1.0 2.0 0.00 0.00 0.00 68 1011.6
20260903141404 58 130 1.0 2.0 0.00 0.00 0.00 69 1011.6
20260903141203 58 130 1.0 2.0 0.00 0.00 0.00 69 1011.5
20260903141003 58 129 1.0 2.0 0.00 0.00 0.00 71 1011.4
20260903140824 57 131 0.0 2.0 0.00 0.00 0.00 71 1011.4
20260903140603 57 137 0.0 2.0 0.00 0.00 0.00 72 1011.4
20260903140403 57 134 0.0 1.0 0.00 0.00 0.00 74 1011.4
20260903140203 56 134 0.0 1.0 0.00 0.00 0.00 74 1011.3
20260903140024 56 134 0.0 1.0 0.00 0.00 0.00 75 1011.3
20260903135824 56 134 0.0 1.0 0.00 0.00 0.00 77 1011.3
20260903135603 56 132 0.0 1.0 0.00 0.00 0.00 78 1011.3
20260903135403 56 0 0.0 0.0 0.00 0.00 0.00 79 1011.3
20260903135225 56 0 0.0 0.0 0.00 0.00 0.00 79 1011.2
20260903135003 56 105 0.0 1.0 0.00 0.00 0.00 79 1011.1
20260903134803 56 105 0.0 1.0 0.00 0.00 0.00 79 1011.1
20260903134603 56 105 0.0 1.0 0.00 0.00 0.00 80 1011.1
20260903134403 56 105 0.0 1.0 0.00 0.00 0.00 80 1011.1
20260903134203 55 105 0.0 1.0 0.00 0.00 0.00 80 1011.1
20260903134003 55 0 0.0 0.0 0.00 0.00 0.00 81 1011.1
20260903133803 55 0 0.0 0.0 0.00 0.00 0.00 81 1011.1
20260903133603 55 0 0.0 0.0 0.00 0.00 0.00 80 1011.0
20260903133403 55 0 0.0 0.0 0.00 0.00 0.00 80 1011.1
20260903133203 56 0 0.0 0.0 0.00 0.00 0.00 81 1011.1
20260903133003 55 0 0.0 0.0 0.00 0.00 0.00 81 1011.1
20260903132804 55 0 0.0 0.0 0.00 0.00 0.00 81 1011.1
20260903132624 55 0 0.0 0.0 0.00 0.00 0.00 81 1011.1
20260903132403 55 0 0.0 0.0 0.00 0.00 0.00 81 1011.0
20260903132203 55 0 0.0 0.0 0.00 0.00 0.00 81 1011.1
20260903132003 55 0 0.0 0.0 0.00 0.00 0.00 81 1011.1
20260903131804 55 0 0.0 0.0 0.00 0.00 0.00 81 1011.1
20260903131625 55 0 0.0 0.0 0.00 0.00 0.00 81 1011.1
20260903131403 56 0 0.0 0.0 0.00 0.00 0.00 81 1011.1
20260903131203 56 0 0.0 0.0 0.00 0.00 0.00 82 1011.1
20260903131003 56 0 0.0 0.0 0.00 0.00 0.00 83 1011.1
20260903130825 55 0 0.0 0.0 0.00 0.00 0.00 82 1011.1
20260903130603 56 0 0.0 0.0 0.00 0.00 0.00 83 1011.1
20260903130425 56 0 0.0 0.0 0.00 0.00 0.00 83 1011.1
20260903130203 56 0 0.0 0.0 0.00 0.00 0.00 83 1011.1
20260903130004 56 0 0.0 0.0 0.00 0.00 0.00 83 1011.1
20260903125803 55 0 0.0 0.0 0.00 0.00 0.00 83 1011.1
20260903125603 55 0 0.0 0.0 0.00 0.00 0.00 83 1011.1
20260903125403 55 0 0.0 0.0 0.00 0.00 0.00 83 1011.1
20260903125224 55 0 0.0 0.0 0.00 0.00 0.00 82 1011.2
20260903125024 55 0 0.0 0.0 0.00 0.00 0.00 83 1011.1
20260903124824 55 0 0.0 0.0 0.00 0.00 0.00 83 1011.2
20260903124603 55 85 0.0 1.0 0.00 0.00 0.00 83 1011.2
20260903124403 55 88 0.0 2.0 0.00 0.00 0.00 82 1011.2
20260903124203 55 87 1.0 2.0 0.00 0.00 0.00 83 1011.2
20260903124003 55 85 1.0 3.0 0.00 0.00 0.00 83 1011.2
20260903123803 55 85 1.0 3.0 0.00 0.00 0.00 83 1011.2
20260903123603 55 85 1.0 3.0 0.00 0.00 0.00 83 1011.2
20260903123403 55 84 1.0 3.0 0.00 0.00 0.00 83 1011.1
20260903123203 55 84 1.0 3.0 0.00 0.00 0.00 82 1011.2
20260903123003 55 87 1.0 3.0 0.00 0.00 0.00 82 1011.2
20260903122803 55 87 1.0 2.0 0.00 0.00 0.00 83 1011.2
20260903122603 55 87 1.0 3.0 0.00 0.00 0.00 82 1011.2
20260903122403 55 87 1.0 3.0 0.00 0.00 0.00 82 1011.3
20260903122224 55 86 1.0 3.0 0.00 0.00 0.00 82 1011.2
20260903122003 55 86 1.0 3.0 0.00 0.00 0.00 82 1011.2
20260903121803 55 85 1.0 3.0 0.00 0.00 0.00 81 1011.2
20260903121603 55 84 0.0 3.0 0.00 0.00 0.00 81 1011.1
20260903121403 55 84 0.0 2.0 0.00 0.00 0.00 80 1011.2
20260903121203 55 85 1.0 2.0 0.00 0.00 0.00 80 1011.2
20260903121003 55 85 1.0 2.0 0.00 0.00 0.00 80 1011.2
20260903120803 55 85 1.0 2.0 0.00 0.00 0.00 79 1011.1
20260903120603 55 84 1.0 3.0 0.00 0.00 0.00 79 1011.2
20260903120403 55 85 2.0 3.0 0.00 0.00 0.00 78 1011.2
20260903120224 55 84 2.0 3.0 0.00 0.00 0.00 78 1011.2
20260903120003 55 84 2.0 3.0 0.00 0.00 0.00 78 1011.2
20260903115803 55 84 1.0 3.0 0.00 0.00 0.00 77 1011.2
20260903115624 55 85 1.0 3.0 0.00 0.00 0.00 77 1011.3
20260903115403 55 84 1.0 3.0 0.00 0.00 0.00 77 1011.3
20260903115203 55 84 0.0 2.0 0.00 0.00 0.00 78 1011.3
20260903115025 55 88 0.0 2.0 0.00 0.00 0.00 78 1011.3
20260903114804 55 0 0.0 0.0 0.00 0.00 0.00 79 1011.3
20260903114624 55 0 0.0 0.0 0.00 0.00 0.00 79 1011.3
20260903114404 55 0 0.0 0.0 0.00 0.00 0.00 80 1011.3
20260903114224 55 101 0.0 1.0 0.00 0.00 0.00 80 1011.3
20260903114003 55 93 0.0 2.0 0.00 0.00 0.00 80 1011.3
20260903113803 55 91 1.0 2.0 0.00 0.00 0.00 81 1011.3
20260903113603 55 90 1.0 3.0 0.00 0.00 0.00 81 1011.4
20260903113403 55 88 1.0 3.0 0.00 0.00 0.00 81 1011.3
20260903113203 55 86 2.0 3.0 0.00 0.00 0.00 81 1011.4
20260903113003 55 84 2.0 3.0 0.00 0.00 0.00 80 1011.4
20260903112803 55 83 2.0 3.0 0.00 0.00 0.00 80 1011.4
20260903112603 55 82 2.0 3.0 0.00 0.00 0.00 79 1011.4
20260903112403 56 82 1.0 3.0 0.00 0.00 0.00 78 1011.4
20260903112203 56 82 1.0 2.0 0.00 0.00 0.00 78 1011.4
20260903112024 56 83 1.0 2.0 0.00 0.00 0.00 78 1011.5
20260903111803 56 86 0.0 2.0 0.00 0.00 0.00 77 1011.5
20260903111624 56 83 0.0 2.0 0.00 0.00 0.00 78 1011.6
20260903111403 56 0 0.0 0.0 0.00 0.00 0.00 78 1011.6
20260903111203 55 0 0.0 0.0 0.00 0.00 0.00 78 1011.5
20260903111003 55 0 0.0 0.0 0.00 0.00 0.00 78 1011.5
20260903110804 55 0 0.0 0.0 0.00 0.00 0.00 77 1011.5
20260903110604 55 0 0.0 0.0 0.00 0.00 0.00 77 1011.5
20260903110403 55 85 0.0 1.0 0.00 0.00 0.00 77 1011.5
20260903110204 55 86 0.0 2.0 0.00 0.00 0.00 77 1011.5
20260903110024 55 86 1.0 2.0 0.00 0.00 0.00 77 1011.5
20260903105803 55 85 1.0 2.0 0.00 0.00 0.00 77 1011.5
20260903105603 55 85 1.0 2.0 0.00 0.00 0.00 77 1011.5
20260903105403 55 85 1.0 2.0 0.00 0.00 0.00 77 1011.5
20260903105224 56 85 1.0 2.0 0.00 0.00 0.00 77 1011.6
20260903105003 56 84 0.0 2.0 0.00 0.00 0.00 77 1011.6
20260903104806 56 85 0.0 2.0 0.00 0.00 0.00 77 1011.6
20260903104603 56 0 0.0 0.0 0.00 0.00 0.00 77 1011.6
20260903104403 56 0 0.0 0.0 0.00 0.00 0.00 77 1011.6
20260903104203 56 0 0.0 0.0 0.00 0.00 0.00 78 1011.5
20260903104003 56 0 0.0 0.0 0.00 0.00 0.00 78 1011.6
20260903103803 56 0 0.0 0.0 0.00 0.00 0.00 78 1011.5
20260903103603 56 0 0.0 0.0 0.00 0.00 0.00 78 1011.6
20260903103424 56 0 0.0 0.0 0.00 0.00 0.00 78 1011.5
20260903103203 56 0 0.0 0.0 0.00 0.00 0.00 78 1011.6
20260903103003 56 0 0.0 0.0 0.00 0.00 0.00 78 1011.6
20260903102803 56 0 0.0 0.0 0.00 0.00 0.00 77 1011.6
20260903102625 56 0 0.0 0.0 0.00 0.00 0.00 77 1011.6
20260903102403 56 0 0.0 0.0 0.00 0.00 0.00 76 1011.6
20260903102203 56 99 0.0 1.0 0.00 0.00 0.00 76 1011.6
20260903102004 56 89 0.0 1.0 0.00 0.00 0.00 75 1011.6
20260903101803 56 96 0.0 2.0 0.00 0.00 0.00 74 1011.6
20260903101603 56 95 0.0 2.0 0.00 0.00 0.00 74 1011.7
20260903101404 56 89 0.0 2.0 0.00 0.00 0.00 74 1011.6
20260903101225 56 88 1.0 2.0 0.00 0.00 0.00 74 1011.6
20260903101003 56 89 1.0 2.0 0.00 0.00 0.00 74 1011.7
20260903100804 56 88 1.0 2.0 0.00 0.00 0.00 74 1011.6
20260903100603 56 88 1.0 2.0 0.00 0.00 0.00 74 1011.6
20260903100403 56 90 1.0 2.0 0.00 0.00 0.00 74 1011.6
20260903100203 56 88 1.0 3.0 0.00 0.00 0.00 74 1011.6
20260903100004 56 86 1.0 3.0 0.00 0.00 0.00 74 1011.7
20260903095803 56 84 1.0 3.0 0.00 0.00 0.00 74 1011.6
20260903095624 56 84 1.0 3.0 0.00 0.00 0.00 74 1011.7
20260903095424 56 83 1.0 3.0 0.00 0.00 0.00 74 1011.6
20260903095203 56 83 0.0 3.0 0.00 0.00 0.00 74 1011.7
20260903095003 56 83 0.0 2.0 0.00 0.00 0.00 75 1011.8
20260903094803 56 0 0.0 0.0 0.00 0.00 0.00 74 1011.7
20260903094603 56 0 0.0 0.0 0.00 0.00 0.00 74 1011.8
20260903094403 56 0 0.0 0.0 0.00 0.00 0.00 74 1011.8
20260903094203 56 0 0.0 0.0 0.00 0.00 0.00 74 1011.8
20260903094003 56 0 0.0 0.0 0.00 0.00 0.00 74 1011.7
20260903093803 57 0 0.0 0.0 0.00 0.00 0.00 74 1011.8
20260903093624 57 0 0.0 0.0 0.00 0.00 0.00 74 1011.8
20260903093424 57 0 0.0 0.0 0.00 0.00 0.00 74 1011.8
20260903093224 57 0 0.0 0.0 0.00 0.00 0.00 74 1011.9
20260903093003 57 0 0.0 0.0 0.00 0.00 0.00 74 1011.8
20260903092803 57 0 0.0 0.0 0.00 0.00 0.00 74 1011.9
20260903092624 57 0 0.0 0.0 0.00 0.00 0.00 74 1011.8
20260903092403 57 0 0.0 0.0 0.00 0.00 0.00 74 1011.9
20260903092204 57 0 0.0 0.0 0.00 0.00 0.00 74 1011.9
20260903092003 57 82 0.0 1.0 0.00 0.00 0.00 74 1011.9
20260903091804 57 82 0.0 1.0 0.00 0.00 0.00 74 1011.9
20260903091603 57 82 0.0 1.0 0.00 0.00 0.00 73 1011.9
20260903091405 57 82 0.0 1.0 0.00 0.00 0.00 73 1011.9
20260903091203 57 82 0.0 1.0 0.00 0.00 0.00 73 1011.9
20260903091005 57 0 0.0 0.0 0.00 0.00 0.00 73 1012.0
20260903090804 57 0 0.0 0.0 0.00 0.00 0.00 73 1012.0
20260903090603 57 0 0.0 0.0 0.00 0.00 0.00 72 1012.0
20260903090404 57 0 0.0 0.0 0.00 0.00 0.00 72 1012.1
20260903090204 57 0 0.0 0.0 0.00 0.00 0.00 72 1012.0
20260903090004 57 0 0.0 0.0 0.00 0.00 0.00 73 1012.0
20260903085803 57 0 0.0 0.0 0.00 0.00 0.00 73 1012.1
20260903085603 57 0 0.0 0.0 0.00 0.00 0.00 73 1012.1
20260903085403 57 0 0.0 0.0 0.00 0.00 0.00 73 1012.2
20260903085224 57 0 0.0 0.0 0.00 0.00 0.00 72 1012.1
20260903085003 57 0 0.0 0.0 0.00 0.00 0.00 72 1012.2
20260903084803 57 0 0.0 0.0 0.00 0.00 0.00 73 1012.2
20260903084603 57 0 0.0 0.0 0.00 0.00 0.00 72 1012.2
20260903084403 57 83 0.0 1.0 0.00 0.00 0.00 72 1012.2
20260903084205 57 86 0.0 2.0 0.00 0.00 0.00 73 1012.2
20260903084004 57 86 0.0 2.0 0.00 0.00 0.00 72 1012.2
20260903083603 57 86 0.0 2.0 0.00 0.00 0.00 71 1012.2
20260903083403 57 85 0.0 2.0 0.00 0.00 0.00 72 1012.3
20260903083203 57 85 0.0 2.0 0.00 0.00 0.00 72 1012.2
20260903083024 57 85 0.0 2.0 0.00 0.00 0.00 72 1012.3
20260903082803 57 85 0.0 2.0 0.00 0.00 0.00 72 1012.2
20260903082610 57 83 0.0 2.0 0.00 0.00 0.00 72 1012.3
20260903082403 57 90 0.0 1.0 0.00 0.00 0.00 72 1012.3
20260903082003 57 90 0.0 1.0 0.00 0.00 0.00 72 1012.3
20260903081824 57 90 0.0 1.0 0.00 0.00 0.00 72 1012.3
20260903081603 57 90 0.0 1.0 0.00 0.00 0.00 72 1012.3
20260903081403 57 91 0.0 1.0 0.00 0.00 0.00 72 1012.3
20260903081203 57 0 0.0 0.0 0.00 0.00 0.00 72 1012.3
20260903081004 57 0 0.0 0.0 0.00 0.00 0.00 72 1012.3
20260903080803 57 0 0.0 0.0 0.00 0.00 0.00 72 1012.3
20260903080603 57 0 0.0 0.0 0.00 0.00 0.00 72 1012.4
20260903080403 57 0 0.0 0.0 0.00 0.00 0.00 72 1012.4
20260903080235 57 0 0.0 0.0 0.00 0.00 0.00 72 1012.4
20260903080003 58 0 0.0 0.0 0.00 0.00 0.00 72 1012.4
20260903075829 58 0 0.0 0.0 0.00 0.00 0.00 71 1012.4
20260903075624 58 0 0.0 0.0 0.00 0.00 0.00 71 1012.4
20260903075403 58 0 0.0 0.0 0.00 0.00 0.00 71 1012.3
20260903075224 58 0 0.0 0.0 0.00 0.00 0.00 71 1012.3
20260903075003 58 0 0.0 0.0 0.00 0.00 0.00 71 1012.3
20260903074803 58 0 0.0 0.0 0.00 0.00 0.00 71 1012.4
20260903074603 58 0 0.0 0.0 0.00 0.00 0.00 71 1012.4
20260903074403 58 0 0.0 0.0 0.00 0.00 0.00 70 1012.4
20260903074203 58 0 0.0 0.0 0.00 0.00 0.00 70 1012.5
20260903074003 58 0 0.0 0.0 0.00 0.00 0.00 70 1012.5
20260903073824 58 0 0.0 0.0 0.00 0.00 0.00 70 1012.5
20260903073604 58 0 0.0 0.0 0.00 0.00 0.00 70 1012.5
20260903073403 58 0 0.0 0.0 0.00 0.00 0.00 70 1012.5
20260903073203 58 0 0.0 0.0 0.00 0.00 0.00 70 1012.4
20260903073003 59 0 0.0 0.0 0.00 0.00 0.00 70 1012.4
20260903072803 59 0 0.0 0.0 0.00 0.00 0.00 69 1012.5
20260903072603 59 0 0.0 0.0 0.00 0.00 0.00 69 1012.5
20260903072403 59 0 0.0 0.0 0.00 0.00 0.00 69 1012.4
20260903072203 59 0 0.0 0.0 0.00 0.00 0.00 69 1012.5
20260903072003 59 0 0.0 0.0 0.00 0.00 0.00 69 1012.6
20260903071803 59 0 0.0 0.0 0.00 0.00 0.00 69 1012.5
20260903071624 59 0 0.0 0.0 0.00 0.00 0.00 69 1012.5
20260903071403 59 0 0.0 0.0 0.00 0.00 0.00 69 1012.4
20260903071203 59 81 0.0 2.0 0.00 0.00 0.00 69 1012.5
20260903071003 59 82 0.0 2.0 0.00 0.00 0.00 69 1012.4
20260903070804 59 82 0.0 2.0 0.00 0.00 0.00 68 1012.5
20260903070624 59 82 0.0 2.0 0.00 0.00 0.00 68 1012.5
20260903070403 59 82 0.0 2.0 0.00 0.00 0.00 68 1012.4
20260903070204 59 84 0.0 1.0 0.00 0.00 0.00 68 1012.5
20260903070004 59 0 0.0 0.0 0.00 0.00 0.00 68 1012.5
20260903065803 59 79 0.0 1.0 0.00 0.00 0.00 67 1012.5
20260903065603 59 89 0.0 2.0 0.00 0.00 0.00 67 1012.5
20260903065403 59 93 0.0 2.0 0.00 0.00 0.00 68 1012.5
20260903065203 59 93 0.0 2.0 0.00 0.00 0.00 67 1012.5
20260903065003 59 93 0.0 2.0 0.00 0.00 0.00 67 1012.5
20260903064803 59 93 0.0 2.0 0.00 0.00 0.00 67 1012.5
20260903064625 59 94 0.0 2.0 0.00 0.00 0.00 67 1012.5
20260903064403 60 0 0.0 0.0 0.00 0.00 0.00 66 1012.5
20260903064203 60 0 0.0 0.0 0.00 0.00 0.00 66 1012.5
20260903064024 60 0 0.0 0.0 0.00 0.00 0.00 66 1012.6
20260903063803 60 0 0.0 0.0 0.00 0.00 0.00 66 1012.6
20260903063603 60 0 0.0 0.0 0.00 0.00 0.00 66 1012.6
20260903063403 60 0 0.0 0.0 0.00 0.00 0.00 66 1012.5
20260903063224 60 0 0.0 0.0 0.00 0.00 0.00 66 1012.5
20260903063004 60 0 0.0 0.0 0.00 0.00 0.00 66 1012.5
20260903062803 60 0 0.0 0.0 0.00 0.00 0.00 66 1012.5
20260903062603 60 0 0.0 0.0 0.00 0.00 0.00 66 1012.5
20260903062403 60 0 0.0 0.0 0.00 0.00 0.00 65 1012.6
20260903062203 60 0 0.0 0.0 0.00 0.00 0.00 65 1012.5
20260903062024 60 0 0.0 0.0 0.00 0.00 0.00 65 1012.5
20260903061803 60 0 0.0 0.0 0.00 0.00 0.00 64 1012.5
20260903061604 60 0 0.0 0.0 0.00 0.00 0.00 64 1012.5
20260903061403 60 94 0.0 1.0 0.00 0.00 0.00 64 1012.5
20260903061203 60 94 0.0 1.0 0.00 0.00 0.00 64 1012.6
20260903061003 60 94 0.0 1.0 0.00 0.00 0.00 64 1012.6
20260903060824 60 90 0.0 1.0 0.00 0.00 0.00 64 1012.5
20260903060603 60 93 0.0 2.0 0.00 0.00 0.00 64 1012.6
20260903060403 60 93 0.0 2.0 0.00 0.00 0.00 64 1012.5
20260903060224 60 91 0.0 3.0 0.00 0.00 0.00 64 1012.5
20260903060004 60 90 1.0 3.0 0.00 0.00 0.00 64 1012.5
20260903055824 60 90 1.0 3.0 0.00 0.00 0.00 63 1012.5
20260903055603 60 90 1.0 3.0 0.00 0.00 0.00 63 1012.5
20260903055403 60 90 1.0 3.0 0.00 0.00 0.00 63 1012.6
20260903055203 60 89 0.0 2.0 0.00 0.00 0.00 63 1012.6
20260903055003 60 93 0.0 3.0 0.00 0.00 0.00 63 1012.7
20260903054803 60 95 1.0 3.0 0.00 0.00 0.00 63 1012.7
20260903054603 60 95 1.0 3.0 0.00 0.00 0.00 63 1012.6
20260903054403 60 95 1.0 3.0 0.00 0.00 0.00 63 1012.7
20260903054203 60 95 1.0 3.0 0.00 0.00 0.00 63 1012.6
20260903054024 60 96 0.0 3.0 0.00 0.00 0.00 63 1012.7
20260903053845 60 98 0.0 2.0 0.00 0.00 0.00 63 1012.7
20260903053648 60 94 0.0 1.0 0.00 0.00 0.00 63 1012.7
20260903053403 60 0 0.0 0.0 0.00 0.00 0.00 63 1012.7
20260903053224 60 80 0.0 2.0 0.00 0.00 0.00 62 1012.8
20260903052803 60 81 0.0 2.0 0.00 0.00 0.00 62 1012.7
20260903052603 60 82 0.0 2.0 0.00 0.00 0.00 62 1012.7
20260903052506 61 82 0.0 2.0 0.00 0.00 0.00 62 1012.7
20260903052203 61 91 0.0 1.0 0.00 0.00 0.00 62 1012.7
20260903052045 61 91 0.0 2.0 0.00 0.00 0.00 62 1012.8
20260903051824 61 90 0.0 2.0 0.00 0.00 0.00 61 1012.7
20260903051403 61 90 0.0 2.0 0.00 0.00 0.00 61 1012.7
20260903051003 61 90 0.0 2.0 0.00 0.00 0.00 60 1012.7
20260903050824 61 94 0.0 2.0 0.00 0.00 0.00 60 1012.6
20260903050624 61 96 0.0 2.0 0.00 0.00 0.00 60 1012.7
20260903050403 61 96 0.0 2.0 0.00 0.00 0.00 60 1012.7
20260903050003 61 92 0.0 2.0 0.00 0.00 0.00 60 1012.7
20260903045824 62 91 0.0 2.0 0.00 0.00 0.00 60 1012.7
20260903045603 62 84 0.0 2.0 0.00 0.00 0.00 60 1012.7
20260903045404 62 84 0.0 2.0 0.00 0.00 0.00 60 1012.7
20260903045203 62 0 0.0 0.0 0.00 0.00 0.00 60 1012.6
20260903045003 62 0 0.0 0.0 0.00 0.00 0.00 59 1012.6
20260903044804 62 0 0.0 0.0 0.00 0.00 0.00 59 1012.7
20260903044603 62 0 0.0 0.0 0.00 0.00 0.00 59 1012.6
20260903044403 62 0 0.0 0.0 0.00 0.00 0.00 59 1012.6
20260903044225 62 0 0.0 0.0 0.00 0.00 0.00 59 1012.7
20260903044005 62 96 0.0 1.0 0.00 0.00 0.00 59 1012.6
20260903043824 62 96 0.0 1.0 0.00 0.00 0.00 59 1012.5
20260903043645 62 96 0.0 1.0 0.00 0.00 0.00 59 1012.5
20260903043404 62 96 0.0 1.0 0.00 0.00 0.00 59 1012.4
20260903043203 62 96 0.0 1.0 0.00 0.00 0.00 58 1012.4
20260903043024 62 0 0.0 0.0 0.00 0.00 0.00 58 1012.5
20260903042803 62 0 0.0 0.0 0.00 0.00 0.00 58 1012.5
20260903042603 63 0 0.0 0.0 0.00 0.00 0.00 58 1012.5
20260903042403 63 0 0.0 0.0 0.00 0.00 0.00 58 1012.4
20260903042203 63 0 0.0 0.0 0.00 0.00 0.00 58 1012.4
20260903042003 63 0 0.0 0.0 0.00 0.00 0.00 58 1012.4
20260903041603 63 0 0.0 0.0 0.00 0.00 0.00 58 1012.3
20260903041404 63 0 0.0 0.0 0.00 0.00 0.00 58 1012.3
20260903041224 63 0 0.0 0.0 0.00 0.00 0.00 58 1012.3
20260903041003 63 0 0.0 0.0 0.00 0.00 0.00 58 1012.4
20260903040804 63 0 0.0 0.0 0.00 0.00 0.00 57 1012.3
20260903040603 64 0 0.0 0.0 0.00 0.00 0.00 57 1012.4
20260903040424 64 0 0.0 0.0 0.00 0.00 0.00 57 1012.3
20260903040204 64 0 0.0 0.0 0.00 0.00 0.00 57 1012.3
20260903040003 64 0 0.0 0.0 0.00 0.00 0.00 57 1012.2
20260903035803 64 0 0.0 0.0 0.00 0.00 0.00 56 1012.1
20260903035624 64 0 0.0 0.0 0.00 0.00 0.00 56 1012.1
20260903035445 64 0 0.0 0.0 0.00 0.00 0.00 56 1012.1
20260903035245 65 0 0.0 0.0 0.00 0.00 0.00 56 1012.1
20260903035003 65 0 0.0 0.0 0.00 0.00 0.00 56 1012.0
20260903034824 65 0 0.0 0.0 0.00 0.00 0.00 56 1012.0
20260903034603 65 0 0.0 0.0 0.00 0.00 0.00 55 1012.0
20260903034424 65 0 0.0 0.0 0.00 0.00 0.00 56 1011.9
20260903034203 65 0 0.0 0.0 0.00 0.00 0.00 56 1011.9
20260903034003 65 0 0.0 0.0 0.00 0.00 0.00 56 1011.9
20260903033803 66 0 0.0 0.0 0.00 0.00 0.00 56 1011.9
20260903033624 66 0 0.0 0.0 0.00 0.00 0.00 56 1011.9
20260903033424 66 0 0.0 0.0 0.00 0.00 0.00 56 1011.9
20260903033224 66 0 0.0 0.0 0.00 0.00 0.00 55 1011.9
20260903033004 66 0 0.0 0.0 0.00 0.00 0.00 55 1011.9
20260903032846 66 0 0.0 0.0 0.00 0.00 0.00 55 1011.8
20260903032624 66 0 0.0 0.0 0.00 0.00 0.00 55 1011.9
20260903032403 66 0 0.0 0.0 0.00 0.00 0.00 55 1011.8
20260903032203 67 0 0.0 0.0 0.00 0.00 0.00 55 1011.9
20260903032003 67 0 0.0 0.0 0.00 0.00 0.00 54 1011.9
20260903031803 67 0 0.0 0.0 0.00 0.00 0.00 54 1011.7
20260903031603 67 0 0.0 0.0 0.00 0.00 0.00 54 1011.8
20260903031424 67 0 0.0 0.0 0.00 0.00 0.00 54 1011.6
20260903031203 67 0 0.0 0.0 0.00 0.00 0.00 54 1011.6
20260903031045 67 0 0.0 0.0 0.00 0.00 0.00 54 1011.6
20260903030803 68 0 0.0 0.0 0.00 0.00 0.00 54 1011.6
20260903030625 68 0 0.0 0.0 0.00 0.00 0.00 53 1011.5
20260903030404 68 0 0.0 0.0 0.00 0.00 0.00 53 1011.6
20260903030003 68 294 0.0 3.0 0.00 0.00 0.00 53 1011.5
20260903025803 68 300 0.0 4.0 0.00 0.00 0.00 52 1011.6
20260903025603 68 300 0.0 4.0 0.00 0.00 0.00 52 1011.5
20260903025403 69 300 0.0 4.0 0.00 0.00 0.00 52 1011.5
20260903025224 69 301 0.0 4.0 0.00 0.00 0.00 52 1011.5
20260903025003 69 302 0.0 4.0 0.00 0.00 0.00 51 1011.5
20260903024803 69 292 0.0 3.0 0.00 0.00 0.00 51 1011.5
20260903024603 69 293 0.0 3.0 0.00 0.00 0.00 51 1011.5
20260903024403 69 297 1.0 3.0 0.00 0.00 0.00 50 1011.5
20260903024203 70 297 1.0 3.0 0.00 0.00 0.00 50 1011.5
20260903024003 70 297 1.0 4.0 0.00 0.00 0.00 50 1011.5
20260903023824 70 299 1.0 4.0 0.00 0.00 0.00 49 1011.4
20260903023425 70 300 1.0 4.0 0.00 0.00 0.00 49 1011.4
20260903023203 70 299 1.0 4.0 0.00 0.00 0.00 48 1011.3
20260903023003 70 304 1.0 3.0 0.00 0.00 0.00 48 1011.3
20260903022803 71 304 1.0 3.0 0.00 0.00 0.00 47 1011.3
20260903022603 71 308 1.0 3.0 0.00 0.00 0.00 47 1011.3
20260903022403 71 304 1.0 3.0 0.00 0.00 0.00 47 1011.3
20260903022203 71 304 1.0 3.0 0.00 0.00 0.00 47 1011.3
20260903022003 72 308 1.0 3.0 0.00 0.00 0.00 47 1011.3
20260903021803 72 312 1.0 3.0 0.00 0.00 0.00 47 1011.3
20260903021603 72 307 1.0 4.0 0.00 0.00 0.00 46 1011.4
20260903021403 72 310 1.0 4.0 0.00 0.00 0.00 46 1011.3
20260903021203 72 311 1.0 4.0 0.00 0.00 0.00 46 1011.3
20260903021003 73 306 1.0 5.0 0.00 0.00 0.00 46 1011.3
20260903020803 73 302 2.0 5.0 0.00 0.00 0.00 45 1011.4
20260903020445 73 306 2.0 8.0 0.00 0.00 0.00 45 1011.3
20260903020250 74 302 2.0 8.0 0.00 0.00 0.00 44 1011.3
20260903020003 74 304 2.0 8.0 0.00 0.00 0.00 44 1011.3
20260903015803 74 300 3.0 8.0 0.00 0.00 0.00 43 1011.3
20260903015625 74 298 3.0 8.0 0.00 0.00 0.00 43 1011.3
20260903015424 74 296 3.0 8.0 0.00 0.00 0.00 42 1011.3
20260903015203 75 295 4.0 8.0 0.00 0.00 0.00 42 1011.3
20260903014824 75 296 3.0 7.0 0.00 0.00 0.00 41 1011.3
20260903014603 76 296 3.0 7.0 0.00 0.00 0.00 40 1011.2
20260903014404 76 298 2.0 7.0 0.00 0.00 0.00 39 1011.2
20260903014003 76 307 2.0 7.0 0.00 0.00 0.00 38 1011.1
20260903013806 76 309 2.0 7.0 0.00 0.00 0.00 37 1011.1
20260903013625 76 315 2.0 7.0 0.00 0.00 0.00 37 1011.1
20260903013424 76 316 3.0 7.0 0.00 0.00 0.00 36 1011.1
20260903013204 77 309 3.0 7.0 0.00 0.00 0.00 35 1011.1
20260903013003 77 308 3.0 8.0 0.00 0.00 0.00 35 1011.1
20260903012845 77 306 3.0 8.0 0.00 0.00 0.00 35 1011.1
20260903012603 77 301 3.0 8.0 0.00 0.00 0.00 34 1011.1
20260903012403 77 296 3.0 8.0 0.00 0.00 0.00 34 1011.1
20260903012203 78 295 3.0 8.0 0.00 0.00 0.00 33 1011.1
20260903012003 78 292 3.0 7.0 0.00 0.00 0.00 32 1011.1
20260903011803 78 298 3.0 7.0 0.00 0.00 0.00 32 1011.0
20260903011603 78 303 3.0 8.0 0.00 0.00 0.00 31 1011.0
20260903011424 78 310 2.0 8.0 0.00 0.00 0.00 31 1011.0
20260903011203 78 315 3.0 8.0 0.00 0.00 0.00 31 1010.9
20260903010803 78 307 3.0 8.0 0.00 0.00 0.00 31 1011.0
20260903010603 78 302 3.0 8.0 0.00 0.00 0.00 32 1010.9
20260903010403 78 302 3.0 8.0 0.00 0.00 0.00 31 1010.9
20260903010203 78 299 3.0 7.0 0.00 0.00 0.00 31 1010.9
20260903010003 78 301 3.0 9.0 0.00 0.00 0.00 31 1010.9
20260903005803 78 302 3.0 9.0 0.00 0.00 0.00 31 1010.9
20260903005624 79 302 3.0 9.0 0.00 0.00 0.00 31 1010.9
20260903005403 79 304 3.0 9.0 0.00 0.00 0.00 31 1011.0
20260903005203 79 310 4.0 10.0 0.00 0.00 0.00 31 1011.0
20260903005003 78 307 4.0 12.0 0.00 0.00 0.00 31 1011.0
20260903004803 78 308 4.0 12.0 0.00 0.00 0.00 31 1011.0
20260903004603 78 304 5.0 12.0 0.00 0.00 0.00 31 1011.0
20260903004403 78 302 5.0 12.0 0.00 0.00 0.00 31 1011.0
20260903004003 79 293 5.0 10.0 0.00 0.00 0.00 31 1010.9
20260903003803 79 292 5.0 10.0 0.00 0.00 0.00 31 1011.0
20260903003604 79 296 5.0 10.0 0.00 0.00 0.00 31 1010.9
20260903003403 79 295 6.0 10.0 0.00 0.00 0.00 31 1010.9
20260903003203 79 295 6.0 10.0 0.00 0.00 0.00 31 1010.9
20260903003024 79 297 5.0 10.0 0.00 0.00 0.00 31 1010.9
20260903002803 80 293 4.0 10.0 0.00 0.00 0.00 31 1011.0
20260903002624 80 294 4.0 10.0 0.00 0.00 0.00 31 1011.0
20260903002403 80 292 3.0 10.0 0.00 0.00 0.00 30 1010.9
20260903002224 80 295 3.0 9.0 0.00 0.00 0.00 31 1010.9
20260903002024 80 295 3.0 9.0 0.00 0.00 0.00 31 1010.9
20260903001803 80 297 4.0 9.0 0.00 0.00 0.00 30 1010.9
20260903001603 80 295 3.0 8.0 0.00 0.00 0.00 31 1010.9
20260903001403 80 294 3.0 8.0 0.00 0.00 0.00 30 1010.9
20260903001204 80 295 3.0 8.0 0.00 0.00 0.00 30 1010.9
20260903001003 80 295 3.0 9.0 0.00 0.00 0.00 30 1010.9
20260903000803 80 297 3.0 9.0 0.00 0.00 0.00 29 1010.9
20260903000603 80 295 3.0 9.0 0.00 0.00 0.00 31 1010.9
20260903000404 80 295 4.0 9.0 0.00 0.00 0.00 31 1010.9
20260903000204 80 294 5.0 9.0 0.00 0.00 0.00 30 1010.9
20260903000003 80 295 4.0 9.0 0.00 0.00 0.00 30 1011.0
20260902235803 80 294 4.0 9.0 0.00 0.00 0.00 28 1011.0
20260902235603 80 296 4.0 9.0 0.00 0.00 0.00 27 1011.0
20260902235403 80 297 4.0 9.0 0.00 0.00 0.00 27 1011.0
20260902235224 81 298 4.0 8.0 0.00 0.00 0.00 28 1011.0
20260902235027 81 299 4.0 8.0 0.00 0.00 0.00 29 1011.0
20260902234803 80 303 4.0 8.0 0.00 0.00 0.00 29 1011.1
20260902234603 80 300 4.0 8.0 0.00 0.00 0.00 30 1011.1
20260902234403 80 302 4.0 10.0 0.00 0.00 0.00 29 1011.1
20260902234203 80 303 4.0 10.0 0.00 0.00 0.00 30 1011.1
20260902234003 80 301 4.0 10.0 0.00 0.00 0.00 29 1011.2
20260902233803 80 296 4.0 10.0 0.00 0.00 0.00 29 1011.3
20260902233603 81 290 4.0 10.0 0.00 0.00 0.00 28 1011.3
20260902233424 81 278 3.0 11.0 0.00 0.00 0.00 28 1011.3
20260902233224 81 274 3.0 11.0 0.00 0.00 0.00 27 1011.2
20260902233024 81 282 3.0 11.0 0.00 0.00 0.00 27 1011.3
20260902232803 81 289 4.0 13.0 0.00 0.00 0.00 26 1011.3
20260902232603 81 295 4.0 13.0 0.00 0.00 0.00 27 1011.3
20260902232403 81 297 4.0 13.0 0.00 0.00 0.00 28 1011.3
20260902232203 81 295 4.0 13.0 0.00 0.00 0.00 28 1011.3
20260902232003 81 291 4.0 13.0 0.00 0.00 0.00 27 1011.4
20260902231824 81 291 4.0 13.0 0.00 0.00 0.00 27 1011.3
20260902231603 81 292 4.0 10.0 0.00 0.00 0.00 27 1011.4
20260902231403 81 295 3.0 10.0 0.00 0.00 0.00 27 1011.4
20260902231224 82 291 3.0 10.0 0.00 0.00 0.00 25 1011.4
20260902231003 82 269 2.0 9.0 0.00 0.00 0.00 25 1011.5
20260902230819 82 255 2.0 7.0 0.00 0.00 0.00 25 1011.4
20260902230603 81 259 2.0 7.0 0.00 0.00 0.00 25 1011.4
20260902230424 81 264 3.0 7.0 0.00 0.00 0.00 24 1011.4
20260902230204 81 281 4.0 10.0 0.00 0.00 0.00 24 1011.5
20260902230024 81 289 3.0 10.0 0.00 0.00 0.00 24 1011.5
20260902225810 81 294 3.0 10.0 0.00 0.00 0.00 25 1011.5
20260902225603 81 295 3.0 10.0 0.00 0.00 0.00 24 1011.5
20260902225403 82 287 2.0 10.0 0.00 0.00 0.00 24 1011.6
20260902225203 82 258 2.0 6.0 0.00 0.00 0.00 23 1011.6
20260902225003 81 263 2.0 6.0 0.00 0.00 0.00 22 1011.7
20260902224845 81 270 3.0 7.0 0.00 0.00 0.00 22 1011.7
20260902224603 81 266 3.0 7.0 0.00 0.00 0.00 22 1011.7
20260902224203 81 283 3.0 7.0 0.00 0.00 0.00 21 1011.8
20260902224003 81 285 3.0 11.0 0.00 0.00 0.00 22 1011.8
20260902223803 81 289 3.0 11.0 0.00 0.00 0.00 22 1011.8
20260902223624 81 292 4.0 11.0 0.00 0.00 0.00 23 1011.8
20260902223403 81 289 5.0 11.0 0.00 0.00 0.00 22 1011.8
20260902223224 81 293 5.0 11.0 0.00 0.00 0.00 21 1011.9
20260902223003 82 300 4.0 10.0 0.00 0.00 0.00 22 1011.9
20260902222803 82 299 4.0 10.0 0.00 0.00 0.00 22 1011.9
20260902222603 82 299 3.0 10.0 0.00 0.00 0.00 22 1012.0
20260902222403 82 298 3.0 7.0 0.00 0.00 0.00 22 1012.0
20260902222203 82 291 3.0 8.0 0.00 0.00 0.00 22 1012.0
20260902222004 82 284 3.0 8.0 0.00 0.00 0.00 20 1012.0
20260902221803 82 273 2.0 8.0 0.00 0.00 0.00 20 1012.1
20260902221603 82 285 3.0 8.0 0.00 0.00 0.00 19 1012.1
20260902221403 82 292 2.0 8.0 0.00 0.00 0.00 19 1012.2
20260902221203 82 280 2.0 6.0 0.00 0.00 0.00 20 1012.1
20260902221003 82 288 2.0 8.0 0.00 0.00 0.00 20 1012.1
20260902220803 82 286 3.0 8.0 0.00 0.00 0.00 20 1012.1
20260902220603 82 285 2.0 8.0 0.00 0.00 0.00 20 1012.1
20260902220403 81 286 2.0 8.0 0.00 0.00 0.00 20 1012.2
20260902220203 81 299 2.0 8.0 0.00 0.00 0.00 20 1012.2
20260902220004 81 306 2.0 7.0 0.00 0.00 0.00 20 1012.2
20260902215824 81 310 3.0 7.0 0.00 0.00 0.00 21 1012.2
20260902215603 81 308 3.0 9.0 0.00 0.00 0.00 19 1012.2
20260902215403 81 309 3.0 9.0 0.00 0.00 0.00 19 1012.2
20260902214803 81 274 2.0 9.0 0.00 0.00 0.00 18 1012.3
20260902214624 81 261 2.0 6.0 0.00 0.00 0.00 18 1012.3
20260902214403 81 284 3.0 14.0 0.00 0.00 0.00 17 1012.4
20260902214203 81 288 4.0 14.0 0.00 0.00 0.00 16 1012.4
20260902213824 81 299 3.0 14.0 0.00 0.00 0.00 17 1012.5
20260902213624 81 306 2.0 14.0 0.00 0.00 0.00 17 1012.5
20260902213404 81 320 2.0 11.0 0.00 0.00 0.00 19 1012.5
20260902213212 81 300 2.0 7.0 0.00 0.00 0.00 18 1012.4
20260902212803 80 297 2.0 8.0 0.00 0.00 0.00 17 1012.5
20260902212603 80 296 3.0 8.0 0.00 0.00 0.00 17 1012.6
20260902212403 81 278 3.0 8.0 0.00 0.00 0.00 16 1012.6
20260902212224 81 289 2.0 8.0 0.00 0.00 0.00 16 1012.5
20260902212003 81 291 2.0 6.0 0.00 0.00 0.00 17 1012.6
20260902211803 81 281 2.0 6.0 0.00 0.00 0.00 18 1012.6
20260902211624 81 228 2.0 7.0 0.00 0.00 0.00 16 1012.5
20260902211424 81 224 2.0 7.0 0.00 0.00 0.00 17 1012.6
20260902211203 81 124 2.0 7.0 0.00 0.00 0.00 18 1012.6
20260902211003 81 130 2.0 7.0 0.00 0.00 0.00 16 1012.6
20260902210804 81 163 2.0 7.0 0.00 0.00 0.00 16 1012.6
20260902210604 81 257 2.0 7.0 0.00 0.00 0.00 17 1012.7
20260902210403 81 255 3.0 7.0 0.00 0.00 0.00 17 1012.7
20260902210203 80 254 2.0 7.0 0.00 0.00 0.00 16 1012.7
20260902210024 80 256 2.0 7.0 0.00 0.00 0.00 16 1012.8
20260902205803 81 266 3.0 9.0 0.00 0.00 0.00 17 1012.7
20260902205603 81 262 2.0 9.0 0.00 0.00 0.00 16 1012.8
20260902205424 81 269 2.0 9.0 0.00 0.00 0.00 16 1012.8
20260902205203 81 285 2.0 9.0 0.00 0.00 0.00 16 1012.8
20260902205003 81 297 2.0 10.0 0.00 0.00 0.00 17 1012.9
20260902204603 80 305 2.0 10.0 0.00 0.00 0.00 19 1012.8
20260902204424 80 300 3.0 10.0 0.00 0.00 0.00 19 1012.9
20260902204203 80 298 3.0 10.0 0.00 0.00 0.00 19 1012.8
20260902204024 80 299 3.0 6.0 0.00 0.00 0.00 20 1012.8
20260902203803 80 294 3.0 8.0 0.00 0.00 0.00 18 1012.8
20260902203624 80 297 3.0 8.0 0.00 0.00 0.00 20 1012.9
20260902203403 80 300 4.0 8.0 0.00 0.00 0.00 20 1012.9
20260902203203 80 294 3.0 8.0 0.00 0.00 0.00 20 1012.9
20260902203003 80 293 3.0 8.0 0.00 0.00 0.00 19 1013.0
20260902202803 80 296 3.0 6.0 0.00 0.00 0.00 20 1012.9
20260902202624 80 294 2.0 6.0 0.00 0.00 0.00 20 1012.9
20260902202403 80 279 1.0 6.0 0.00 0.00 0.00 19 1012.9
20260902202250 80 302 1.0 8.0 0.00 0.00 0.00 20 1012.9
20260902202024 80 293 2.0 8.0 0.00 0.00 0.00 20 1012.9
20260902201803 79 269 2.0 8.0 0.00 0.00 0.00 19 1013.0
20260902201603 79 270 3.0 8.0 0.00 0.00 0.00 19 1013.0
20260902201403 79 273 3.0 8.0 0.00 0.00 0.00 18 1013.1
20260902201203 79 271 4.0 9.0 0.00 0.00 0.00 18 1013.1
20260902201024 79 271 4.0 9.0 0.00 0.00 0.00 17 1013.0
20260902200803 79 277 4.0 9.0 0.00 0.00 0.00 18 1013.1